User: anonymous   Login
Location: Unspecified
(0.0000°N, 0.0000°E)
Time: 21:03:40
(UTC+00:00)
Language:

STARLINK-31495 - Orbit

View from above orbital plane
View from above orbital plane
View from above satellite
View from above satellite

Ground track
Ground track

The orbit is defined by the following mean orbital elements,

1 59313U          26145.45295218 +.00000000 +00000-0 +44819-3 0 00007
2 59313  42.9995 149.4490 0001679  90.7760 269.3285 15.30528123    09
Epoch (UTC): 25 May 2026 10:52:15
Eccentricity: 0.0001679
inclination: 42.9995°
perigee height: 473 km
apogee height: 475 km
right ascension of ascending node: 149.4490°
argument of perigee: 90.7760°
revolutions per day: 15.30528123
mean anomaly at epoch: 269.3285°

The dashed part of the orbit path shows where the satellite is in the earth's shadow,  

DLR